Weather Service Report


944 
ASUS42 KTBW 301817
RWRFL 
FLORIDA REGIONAL WEATHER ROUNDUP
NATIONAL WEATHER SERVICE TAMPA BAY RUSKIN FL
200 PM EDT THU MAR 30 2017

NOTE: "FAIR" INDICATES FEW OR NO CLOUDS BELOW 12,000 FEET WITH NO
SIGNIFICANT WEATHER AND/OR OBSTRUCTIONS TO VISIBILITY.

FLZ001>010-012>015-112-114-115-301900-
PANHANDLE FLORIDA
  
CITY           SKY/WX    TMP DP  RH WIND       PRES   REMARKS
PENSACOLA      CLOUDY    78  68  71 SE20G25   29.91F                  
PENSACOLA NAS  CLOUDY    79  68  69 SE18      29.89F                  
MILTON NAS     PTSUNNY   79  67  66 S18       29.90                   
CRESTVIEW      MOSUNNY   80  64  58 S14G22    29.93F                  
DUKE FIELD     MOSUNNY   79  63  56 S17G26    29.91F                  
VALPARAISO     MOSUNNY   78  68  71 S16G23    29.92F                  
MARY ESTHER    PTSUNNY   77  65  65 SE15G22   29.91F                  
PANAMA CITY    PTSUNNY   81  62  52 S15G25    29.95F                  
TYNDALL AFB    MOSUNNY   78  67  67 S12G20    29.96F                  
APALACHICOLA   SUNNY     78  69  73 S9        29.97F                  

STATION/POSITION SKY/WX   TEMP    WIND        PRES    WAVE   SWELL
                          AIR SEA DIR/SP/G            HT/PER HT/PER
                          (F)     (DEG/KT/KT) (MB)    (FT/S) (FT/S)
30.1N   87.6W              72 71  140/ 16/ 17 1011.7F   4/ 6
29.2N   88.2W              73 74  130/ 17/ 25 1011.5F   4/ 6
PANAMA CITY BEAC           71 71  140/ 10/ 12 1014.7F
TOWER C                    71     170/  7/  8 1015.4F
28.5N   84.5W              72 72  180/  8/ 10 1015.4F   2/ 5   2/ 5

$$
FLZ011-016>038-118-127-128-134-139-239-301900-
NORTH FLORIDA
  
CITY           SKY/WX    TMP DP  RH WIND       PRES   REMARKS
MARIANNA       PTSUNNY   81  60  48 S12       29.93F                  
TALLAHASSEE    PTSUNNY   82  56  40 S9        29.96F                  
PERRY          PTSUNNY   84  56  38 SW14      29.98F                  
CROSS CITY     MOSUNNY   88  57  35 SW8       29.96F                  
LAKE CITY      PTSUNNY   82  52  34 CALM      29.95F                  
GAINESVILLE    PTSUNNY   85  58  39 S7        29.96F                  
WILLISTON      SUNNY     90  59  35 S6        29.96F                  
PALATKA        FAIR      86  55  35 S12G17    29.98F                  
MAYPORT NAS    MOSUNNY   80  65  59 SE14      29.98F                  
JACKSONVILLE   MOSUNNY   87  60  40 S12       29.95F                  
JAX NAS        PTSUNNY   85  60  42 SE9       29.98F                  
FERNANDINA BEA FAIR      82  63  51 SE10      29.97F                  
ST AUGUSTINE   MOSUNNY   82  64  54 SE15      29.99F                  
PALM COAST     MOSUNNY   84  59  42 S5        29.98F                  

STATION/POSITION SKY/WX   TEMP    WIND        PRES    WAVE   SWELL
                          AIR SEA DIR/SP/G            HT/PER HT/PER
                          (F)     (DEG/KT/KT) (MB)    (FT/S) (FT/S)
SHELL POINT      NOT AVBL
KEATON BEACH               74     210/  8/  9 1015.0F
CEDAR KEY                  75     220/  6/  8 1016.8R
FERNANDINA                 79 68  130/  8/ 14 1015.9F
30.7N   81.3W                 69                N/A     3/10   2/11
MAYPORT                    77 67  130/ 11/ 14 1015.6F
31.4N   80.9W              69 67  150/  6/  8 1015.6F   3/10   3/10
ST AUGUSTINE               71 69  140/ 11/ 13 1016.2F

$$
FLZ040-043>046-052-053-057-058-063-144-301900-
INTERIOR CENTRAL FLORIDA
  
CITY           SKY/WX    TMP DP  RH WIND       PRES   REMARKS
OCALA          MOSUNNY   88  57  35 SE7       29.98F                  
THE VILLAGES     N/A     88  59  37 MISG      29.89F                  
LEESBURG       SUNNY     85  60  42 SE5       30.00F                  
SANFORD        MOSUNNY   84  55  36 S3        29.99S                  
ORLANDO EXEC   MOSUNNY   85  56  37 S14G20    29.99F                  
ORLANDO INTL   PTSUNNY   87  54  32 S12       29.99F                  
KISSIMMEE      MOSUNNY   84  58  40 VRB3      30.00F                  
WINTER HAVEN   MOSUNNY   83  54  36 SE6       30.00F                  
LAKELAND       PTSUNNY   84  55  37 SE5       30.00F                  
BARTOW         PTSUNNY   82  55  39 E9        29.99F                  
OKEECHOBEE     SUNNY    N/A N/A N/A SE12      30.00F                  

$$
FLZ041-047-054-059-064-141-147-301900-
EAST CENTRAL FLORIDA
  
CITY           SKY/WX    TMP DP  RH WIND       PRES   REMARKS
ORMOND BEACH   MOSUNNY   82  61  47 E12       29.99S                  
DAYTONA BEACH  MOSUNNY   86  57  37 S9        29.99F                  
DELAND         MOSUNNY   84  55  37 SW7       29.99S                  
NEW SMYRNA BEA MOSUNNY   86  57  37 SE14      30.00F                  
JFK SPACE CTR  SUNNY     85  61  45 S8        29.98F                  
TITUSVILLE     PTSUNNY   82  57  42 SW12      29.99F                  
CAPE CANAVERAL SUNNY     85  64  49 S13       29.99F                  
PATRICK AFB    SUNNY     81  68  63 SE14      29.99F                  
MELBOURNE      SUNNY     84  65  52 SE14      30.00F                  
VERO BEACH     MOSUNNY   83  60  45 SE17      30.00F                  
FT PIERCE      SUNNY     84  63  49 SE15      29.99F                  
STUART         MOSUNNY   86  63  45 SE14G21   30.00F                  

STATION/POSITION SKY/WX   TEMP    WIND        PRES    WAVE   SWELL
                          AIR SEA DIR/SP/G            HT/PER HT/PER
                          (F)     (DEG/KT/KT) (MB)    (FT/S) (FT/S)
TRIDENT PIER               79 75  120/  7/ 11 1017.1F
28.4N   80.5W                 75                N/A     2/10   2/11
27.5N   80.2W                 77                N/A     3/18   2/18

$$
FLZ050-056-061-142-242-148-248-149-249-151-251-155-255-
160-260-301900-
WEST CENTRAL FLORIDA
  
CITY           SKY/WX    TMP DP  RH WIND       PRES   REMARKS
CRYSTAL RIVER  FAIR      84  55  37 W10G17    29.98F                  
INVERNESS      CLOUDY    82  59  44 S6        29.98F HAZE             
BROOKSVILLE    PTSUNNY   83  60  45 W14G22    30.00F                  
CLEARWATER AIR FAIR      81  63  54 SW10      30.00F                  
ST PETE CLEARW PTSUNNY   84  63  49 SW13      30.00S                  
TAMPA INTL     MOSUNNY   83  61  47 W7        30.00F                  
TAMPA EXEC     CLOUDY    84  59  42 NW6       30.00F                  
PLANT CITY     PTSUNNY   86  59  39 SE6       30.02S                  
MACDILL AFB    MOSUNNY   85  69  57 S12       30.00S                  
PETER O KNIGHT SUNNY     88  63  42 SW8       30.00F                  
ST PETERSBURG  SUNNY     78  65  63 SW14      29.99S                  
SARASOTA       SUNNY     80  64  58 S16       29.99S                  
VENICE         FAIR      79  68  69 S13       30.01S                  

STATION/POSITION SKY/WX   TEMP    WIND        PRES    WAVE   SWELL
                          AIR SEA DIR/SP/G            HT/PER HT/PER
                          (F)     (DEG/KT/KT) (MB)    (FT/S) (FT/S)
27.3N   84.2W                 74                N/A     3/ 5
CLEARWATER BEACH           73 73  210/ 12/ 14 1016.5F
MIDDLE TAMPA BAY           74     250/ 13/ 14 1016.2F
VENICE                     75 74  200/ 11/ 12 1015.6S

$$
FLZ066-069-070-075>078-162-262-165-265-301900-
SOUTHWEST FLORIDA AND KEYS
  
CITY           SKY/WX    TMP DP  RH WIND       PRES   REMARKS
PUNTA GORDA    MOSUNNY   84  61  45 W12       29.99F                  
FT MYERS       MOSUNNY   84  62  47 S9        29.97F                  
SOUTHWEST INTL MOSUNNY   85  56  37 S14       29.97F                  
NAPLES         MOSUNNY   84  64  50 S13G25    29.97F                  
IMMOKALEE        N/A     84  59  42 S8G15     29.97S                  
MARATHON       SUNNY     83  68  60 SE9G20    29.97F                  
KEY WEST NAS   MOSUNNY   83  64  52 SE20      29.96F                  
KEY WEST INTL  SUNNY     82  67  60 SE18G29   29.96F                  

STATION/POSITION SKY/WX   TEMP    WIND        PRES    WAVE   SWELL
                          AIR SEA DIR/SP/G            HT/PER HT/PER
                          (F)     (DEG/KT/KT) (MB)    (FT/S) (FT/S)
NAPLES                        76              1015.1R
26.0N   85.6W              78     130/ 10/ 14 1014.1F   5/ 7   3/ 7
DRY TORTUGAS               76     150/ 15/ 17 1014.8S
SAND KEY                   76     160/ 21/ 25 1014.8F
LONG KEY                   77 78  160/ 17/ 19 1015.4F
MOLASSES REEF              76 79  150/ 16/ 17 1015.3F

$$
FLZ067-068-071>074-168-172>174-301900-
SOUTHEAST FLORIDA 
  
CITY           SKY/WX    TMP DP  RH WIND       PRES   REMARKS
W PALM BEACH   MOSUNNY   81  58  45 S15G25    30.00F                  
BOCA RATON     MOSUNNY   81  63  54 S14G21    29.99F                  
FT LAUDER-EXEC MOSUNNY   83  59  44 SE13G21   29.99F                  
FT LAUDERDALE  PTSUNNY   80  62  54 S17       29.98F                  
POMPANO BEACH  SUNNY     81  61  50 SE16G24   29.99F                  
PEMBROKE PINES MOSUNNY   83  60  45 SE13      30.00F                  
OPA LOCKA      MOSUNNY   81  60  48 S13       29.99F                  
MIAMI          PTSUNNY   84  61  45 SE14G20   29.99F                  
WEST KENDALL   PTSUNNY   83  62  49 SE14      29.98F                  
HOMESTEAD      LGT RAIN  81  63  54 SE14G21   29.97F                  

STATION/POSITION SKY/WX   TEMP    WIND        PRES    WAVE   SWELL
                          AIR SEA DIR/SP/G            HT/PER HT/PER
                          (F)     (DEG/KT/KT) (MB)    (FT/S) (FT/S)
PORT EVERGLADES            78     160/ 12/ 16 1015.9F
LAKE WORTH                        170/ 14/ 19   N/A
FOWEY ROCKS                76 78  140/ 15/ 17 1016.1F
SETTLEMENT POINT           78     160/ 12/ 15 1016.2F

$$

  

Return to Home page


Western Regional Climate Center, wrcc@dri.edu